When you browse on this site, cookies collect data to enhance your experience and personalize the content and advertising you see.
Visit our Privacy Policy to learn more. By continuing to use the site, you agree to this use of cookies and data.
  • In Hungary
  • List of Countries
  • For 7 days
  • Water Temperature
  • Satellite Maps
  • Weather Map
  • News
  • Weather Widgets
  • user-avatar
    Login

    Hourly Weather Revda

    Today, 12 December, Wednesday

    Time Temperature Precipitation Wind Pressure Humidity
    00:00 -9°C° 0 mm 1 mps 738 mmHg 93%
    01:00 -9°C° 0 mm 1 mps 738 mmHg 93%
    02:00 -8°C° 0 mm 1 mps 738 mmHg 92%
    03:00 -8°C° 0 mm 1 mps 738 mmHg 91%
    04:00 -7°C° 0 mm 1 mps 738 mmHg 90%
    05:00 -7°C° 0 mm 1 mps 738 mmHg 89%
    06:00 -7°C° 0 mm 1 mps 738 mmHg 89%
    07:00 -6°C° 0 mm 1 mps 738 mmHg 88%
    08:00 -6°C° 0 mm 1 mps 738 mmHg 88%
    09:00 -4°C° 0 mm 1 mps 738 mmHg 87%
    10:00 -4°C° 0 mm 1 mps 738 mmHg 86%
    11:00 -4°C° 0 mm 1 mps 737 mmHg 85%
    12:00 -3°C° 0 mm 1 mps 737 mmHg 84%
    13:00 -2°C° 0 mm 1 mps 737 mmHg 83%
    14:00 -3°C° 0 mm 1 mps 737 mmHg 85%
    15:00 -4°C° 0 mm 1 mps 737 mmHg 87%
    16:00 -6°C° 0 mm 1 mps 737 mmHg 89%
    17:00 -7°C° 0 mm 1 mps 737 mmHg 89%
    18:00 -7°C° 0 mm 1 mps 737 mmHg 89%
    19:00 -7°C° 0 mm 1 mps 737 mmHg 88%
    20:00 -7°C° 0 mm 1 mps 736 mmHg 88%
    21:00 -7°C° 0 mm 1 mps 736 mmHg 88%
    22:00 -8°C° 0 mm 1 mps 736 mmHg 88%
    23:00 -8°C° 0 mm 1 mps 736 mmHg 88%

    Tomorrow, 13 December, Thursday

    Time Temperature Precipitation Wind Pressure Humidity
    00:00 -8°C° 0 mm 1 mps 736 mmHg 87%
    01:00 -8°C° 0 mm 1 mps 736 mmHg 87%
    02:00 -8°C° 0 mm 1 mps 736 mmHg 86%
    03:00 -8°C° 0 mm 1 mps 736 mmHg 86%
    04:00 -8°C° 0 mm 1 mps 736 mmHg 85%
    05:00 -8°C° 0 mm 1 mps 736 mmHg 84%
    06:00 -7°C° 0 mm 1 mps 736 mmHg 83%
    07:00 -7°C° 0 mm 1 mps 736 mmHg 82%
    08:00 -7°C° 0 mm 1 mps 736 mmHg 80%
    09:00 -6°C° 0 mm 1 mps 736 mmHg 78%
    10:00 -7°C° 0 mm 2 mps 737 mmHg 75%
    11:00 -6°C° 0 mm 2 mps 737 mmHg 75%
    12:00 -6°C° 0 mm 2 mps 737 mmHg 75%
    13:00 -3°C° 0 mm 1 mps 737 mmHg 75%
    14:00 -4°C° 0 mm 1 mps 737 mmHg 79%
    15:00 -6°C° 0 mm 1 mps 737 mmHg 83%
    16:00 -7°C° 0 mm 1 mps 737 mmHg 87%
    17:00 -7°C° 0 mm 1 mps 738 mmHg 88%
    18:00 -7°C° 0 mm 1 mps 738 mmHg 90%
    19:00 -8°C° 0 mm 1 mps 738 mmHg 91%
    20:00 -8°C° 0 mm 1 mps 738 mmHg 92%
    21:00 -8°C° 0 mm 1 mps 739 mmHg 93%
    22:00 -9°C° 0 mm 1 mps 739 mmHg 95%
    23:00 -9°C° 0 mm 1 mps 739 mmHg 95%

    Day after tomorrow, 14 December, Friday

    Time Temperature Precipitation Wind Pressure Humidity
    00:00 -9°C° 0 mm 1 mps 739 mmHg 95%
    01:00 -9°C° 0 mm 1 mps 740 mmHg 96%
    02:00 -10°C° 0 mm 1 mps 740 mmHg 96%
    03:00 -10°C° 0 mm 1 mps 740 mmHg 96%
    04:00 -10°C° 0 mm 1 mps 740 mmHg 96%
    05:00 -10°C° 0 mm 1 mps 740 mmHg 96%
    06:00 -10°C° 0 mm 1 mps 740 mmHg 96%
    07:00 -10°C° 0 mm 1 mps 740 mmHg 96%
    08:00 -10°C° 0 mm 0 mps 740 mmHg 95%
    09:00 -10°C° 0 mm 0 mps 740 mmHg 95%
    10:00 -9°C° 0 mm 0 mps 740 mmHg 95%
    11:00 -8°C° 0 mm 0 mps 740 mmHg 93%
    12:00 -7°C° 0 mm 0 mps 740 mmHg 91%
    13:00 -6°C° 0 mm 0 mps 740 mmHg 89%
    14:00 -7°C° 0 mm 0 mps 740 mmHg 91%
    15:00 -8°C° 0 mm 0 mps 739 mmHg 92%
    16:00 -9°C° 0 mm 1 mps 739 mmHg 94%
    17:00 -9°C° 0 mm 1 mps 739 mmHg 94%
    18:00 -10°C° 0 mm 1 mps 739 mmHg 93%
    19:00 -10°C° 0 mm 1 mps 739 mmHg 93%
    20:00 -10°C° 0 mm 1 mps 738 mmHg 93%
    21:00 -10°C° 0 mm 1 mps 738 mmHg 93%
    22:00 -10°C° 0 mm 1 mps 738 mmHg 92%
    23:00 -10°C° 0 mm 1 mps 738 mmHg 92%

    15 December, Saturday

    Time Temperature Precipitation Wind Pressure Humidity
    00:00 -10°C° 0 mm 1 mps 737 mmHg 92%
    01:00 -10°C° 0 mm 1 mps 737 mmHg 92%
    02:00 -10°C° 0 mm 1 mps 737 mmHg 91%
    03:00 -11°C° 0 mm 1 mps 736 mmHg 91%
    04:00 -11°C° 0 mm 1 mps 736 mmHg 90%
    05:00 -11°C° 0 mm 1 mps 736 mmHg 89%
    06:00 -11°C° 0 mm 1 mps 736 mmHg 88%
    07:00 -11°C° 0 mm 1 mps 735 mmHg 87%
    08:00 -11°C° 0 mm 1 mps 735 mmHg 85%
    09:00 -10°C° 0 mm 1 mps 735 mmHg 83%
    10:00 -10°C° 0 mm 1 mps 735 mmHg 81%
    11:00 -9°C° 0 mm 1 mps 735 mmHg 79%
    12:00 -8°C° 0 mm 1 mps 734 mmHg 77%
    13:00 -7°C° 0 mm 1 mps 734 mmHg 74%
    14:00 -8°C° 0 mm 1 mps 734 mmHg 77%
    15:00 -8°C° 0 mm 1 mps 734 mmHg 80%
    16:00 -9°C° 0 mm 1 mps 734 mmHg 82%
    17:00 -10°C° 0 mm 1 mps 734 mmHg 84%
    18:00 -10°C° 0 mm 1 mps 734 mmHg 85%
    19:00 -10°C° 0 mm 1 mps 734 mmHg 87%
    20:00 -10°C° 0 mm 1 mps 734 mmHg 88%
    21:00 -10°C° 0 mm 1 mps 734 mmHg 90%
    22:00 -10°C° 0 mm 2 mps 735 mmHg 92%
    23:00 -12°C° 0 mm 2 mps 735 mmHg 93%

    16 December, Sunday

    Time Temperature Precipitation Wind Pressure Humidity
    00:00 -12°C° 0 mm 2 mps 735 mmHg 95%
    01:00 -12°C° 0 mm 2 mps 735 mmHg 96%
    02:00 -12°C° 0 mm 2 mps 735 mmHg 96%
    03:00 -10°C° 0 mm 2 mps 735 mmHg 95%
    04:00 -9°C° 0 mm 2 mps 736 mmHg 94%
    05:00 -9°C° 0 mm 2 mps 736 mmHg 95%
    06:00 -9°C° 0 mm 2 mps 736 mmHg 95%
    07:00 -9°C° 0 mm 2 mps 736 mmHg 95%
    08:00 -9°C° 0 mm 2 mps 737 mmHg 94%
    09:00 -9°C° 0 mm 2 mps 737 mmHg 94%
    10:00 -8°C° 0 mm 2 mps 737 mmHg 93%
    11:00 -8°C° 0 mm 2 mps 737 mmHg 92%
    12:00 -8°C° 0 mm 2 mps 738 mmHg 91%
    13:00 -7°C° 0 mm 2 mps 738 mmHg 90%
    14:00 -7°C° 0 mm 1 mps 738 mmHg 91%
    15:00 -8°C° 0 mm 1 mps 738 mmHg 93%
    16:00 -9°C° 0 mm 1 mps 738 mmHg 95%
    17:00 -9°C° 0 mm 1 mps 738 mmHg 95%
    18:00 -9°C° 0 mm 1 mps 738 mmHg 95%
    19:00 -10°C° 0 mm 1 mps 738 mmHg 96%
    20:00 -9°C° 0 mm 1 mps 738 mmHg 96%
    21:00 -9°C° 0 mm 1 mps 738 mmHg 95%
    22:00 -8°C° 0 mm 1 mps 738 mmHg 95%
    23:00 -8°C° 0 mm 1 mps 739 mmHg 96%

    17 December, Monday

    Time Temperature Precipitation Wind Pressure Humidity
    00:00 -7°C° 0 mm 1 mps 739 mmHg 96%
    01:00 -7°C° 0 mm 1 mps 739 mmHg 96%
    02:00 -7°C° 0 mm 1 mps 739 mmHg 96%
    03:00 -7°C° 0 mm 1 mps 739 mmHg 96%
    04:00 -6°C° 0 mm 1 mps 739 mmHg 96%
    05:00 -6°C° 0 mm 1 mps 739 mmHg 96%
    06:00 -6°C° 0 mm 1 mps 739 mmHg 96%
    07:00 -6°C° 0 mm 1 mps 739 mmHg 96%
    08:00 -6°C° 0 mm 1 mps 740 mmHg 96%
    09:00 -7°C° 0 mm 2 mps 740 mmHg 95%
    10:00 -6°C° 0 mm 2 mps 740 mmHg 94%
    11:00 -6°C° 0 mm 2 mps 740 mmHg 93%
    12:00 -5°C° 0 mm 2 mps 740 mmHg 92%
    13:00 -5°C° 0 mm 2 mps 740 mmHg 91%
    14:00 -5°C° 0 mm 2 mps 740 mmHg 92%
    15:00 -6°C° 0 mm 2 mps 740 mmHg 93%
    16:00 -6°C° 0 mm 2 mps 740 mmHg 95%
    17:00 -6°C° 0 mm 2 mps 740 mmHg 95%
    18:00 -7°C° 0 mm 2 mps 740 mmHg 96%
    19:00 -7°C° 0 mm 2 mps 740 mmHg 96%
    20:00 -7°C° 0 mm 2 mps 740 mmHg 96%
    21:00 -7°C° 0 mm 2 mps 740 mmHg 95%
    22:00 -7°C° 0 mm 2 mps 740 mmHg 95%
    23:00 -7°C° 0 mm 2 mps 740 mmHg 95%
    Show more